Погода в Андрюшкине

Россия / Республика Саха (Якутия)     69°10′21″N   154°26′41″E
темп.,
°C
ветер,
м/с
пор.,
м/с
влажн.,
%
обл.,
%
осадки,
мм/ч
давл.,
гПа
погр.,
м
28 сентября, вт
вт2823:00−5з81585100 0.0 1009600
02:00−4сз71085100 0.4 10071013
05:00−6зсз612795 0.6 1007316
08:00−5сз101577100 0.0 1006807
11:00−4зсз111573100 0.0 10051024
14:00−3зсз131783100 0.2 10021323
17:00−5ссз7137710 0.4 1006697
20:00−7ссз611845 0.0 1008232
29 сентября, ср
ср2923:00−8ссз510855 0.0 1011179
02:00−9ссз49875 0.0 1013128
05:00−9ссз46855 0.0 101480
08:00−9зсз368276 0.0 101594
11:00−4зсз5884100 0.0 1016336
14:00−2сз599097 0.1 1016480
17:00−2ссз589048 0.3 1018345
20:00−6ссз469748 0.0 102081
30 сентября, чт
чт3023:00−7ссз36965 0.0 102274
02:00−8сз349746 0.0 102356
05:00−9сз229753 0.0 102525
08:00−9зсз23968 0.0 102638
11:00−4зсз22815 0.0 1027182
14:00−3зсз11735 0.0 1027414
17:00−5ююв11865 0.0 102710
20:00−9юв22946 0.0 102712
1 октября, пт
пт123:00−9юв339511 0.0 102731
02:00−9юв359643 0.0 102665
05:00−9вюв479645 0.0 102697
08:00−9вюв410955 0.0 1024176
11:00−6вюв711795 0.0 1022328
14:00−4вюв7117329 0.0 1020377
17:00−6вюв71381100 0.0 1018317
20:00−6вюв71483100 0.0 1016328
2 октября, сб
сб223:00−6вюв71380100 0.0 1013302
02:00−6вюв61279100 0.0 1011302
05:00−6в61194100 0.5 1009290
08:00−5вюв5996100 1.8 1007281
11:00−3вюв4795100 3.0 1005311
14:00−1юв348993 0.1 1004282
17:00−4вюв229492 0.1 100423
20:00−8ююв119774 0.0 100510